| time (UTC) | temp F | wind direction | speed MPH | gust MPH | rain 1hr in | rain 24hr in | rain mn in | humidity % | barometer mb |
| 20260902024016 | 70 | 0 | 0.0 | 0.0 | 0.00 | 0.00 | 0.00 | 97 | 1017.2 |
| 20260902023518 | 71 | 0 | 0.0 | 0.0 | 0.00 | 0.00 | 0.00 | 97 | 1017.2 |
| 20260902022521 | 71 | 0 | 0.0 | 0.0 | 0.00 | 0.00 | 0.00 | 97 | 1017.2 |
| 20260902022018 | 71 | 0 | 0.0 | 0.0 | 0.00 | 0.00 | 0.00 | 97 | 1017.2 |
| 20260902021018 | 71 | 0 | 0.0 | 0.0 | 0.00 | 0.00 | 0.00 | 97 | 1017.3 |
| 20260902020519 | 71 | 0 | 0.0 | 0.0 | 0.00 | 0.00 | 0.00 | 97 | 1017.2 |
| 20260902015518 | 71 | 0 | 0.0 | 0.0 | 0.00 | 0.00 | 0.00 | 96 | 1017.1 |
| 20260902015017 | 72 | 0 | 0.0 | 0.0 | 0.00 | 0.00 | 0.00 | 97 | 1016.9 |
| 20260902014016 | 72 | 0 | 0.0 | 0.0 | 0.00 | 0.00 | 0.00 | 97 | 1017.1 |
| 20260902013516 | 72 | 0 | 0.0 | 0.0 | 0.00 | 0.00 | 0.00 | 97 | 1017.2 |
| 20260902013038 | 72 | 0 | 0.0 | 0.0 | 0.00 | 0.00 | 0.00 | 97 | 1017.2 |
| 20260902012518 | 73 | 0 | 0.0 | 0.0 | 0.00 | 0.00 | 0.00 | 97 | 1017.2 |
| 20260902012016 | 73 | 0 | 0.0 | 0.0 | 0.00 | 0.00 | 0.00 | 97 | 1017.1 |
| 20260902005519 | 73 | 0 | 0.0 | 0.0 | 0.00 | 0.00 | 0.00 | 97 | 1017.1 |
| 20260902005020 | 73 | 0 | 0.0 | 0.0 | 0.00 | 0.00 | 0.00 | 97 | 1016.9 |
| 20260902004019 | 73 | 0 | 0.0 | 0.0 | 0.00 | 0.00 | 0.00 | 97 | 1016.8 |
| 20260902003520 | 73 | 0 | 0.0 | 0.0 | 0.00 | 0.00 | 0.00 | 97 | 1016.5 |
| 20260902002520 | 73 | 0 | 0.0 | 0.0 | 0.00 | 0.00 | 0.00 | 96 | 1016.3 |
| 20260902002017 | 73 | 0 | 0.0 | 0.0 | 0.00 | 0.00 | 0.00 | 96 | 1016.3 |
| 20260902001548 | 73 | 0 | 0.0 | 0.0 | 0.00 | 0.00 | 0.00 | 96 | 1015.9 |
| 20260902001016 | 73 | 0 | 0.0 | 0.0 | 0.00 | 0.00 | 0.00 | 96 | 1015.9 |
| 20260902000516 | 73 | 0 | 0.0 | 0.0 | 0.00 | 0.00 | 0.00 | 96 | 1016.0 |
| 20260901235519 | 73 | 0 | 0.0 | 1.0 | 0.00 | 0.00 | 0.00 | 96 | 1015.8 |
| 20260901235018 | 73 | 0 | 0.0 | 1.0 | 0.00 | 0.00 | 0.00 | 96 | 1015.8 |
| 20260901234018 | 73 | 0 | 0.0 | 0.0 | 0.00 | 0.00 | 0.00 | 96 | 1016.1 |
| 20260901233517 | 73 | 0 | 0.0 | 1.0 | 0.00 | 0.00 | 0.00 | 95 | 1015.9 |
| 20260901232518 | 73 | 0 | 0.0 | 1.0 | 0.00 | 0.00 | 0.00 | 95 | 1016.0 |
| 20260901232019 | 73 | 0 | 0.0 | 1.0 | 0.00 | 0.00 | 0.00 | 95 | 1016.2 |
| 20260901231535 | 74 | 0 | 0.0 | 1.0 | 0.00 | 0.00 | 0.00 | 94 | 1015.7 |
| 20260901231017 | 74 | 0 | 0.0 | 0.0 | 0.00 | 0.00 | 0.00 | 95 | 1015.6 |
| 20260901230519 | 74 | 0 | 0.0 | 0.0 | 0.00 | 0.00 | 0.00 | 94 | 1015.8 |
| 20260901225518 | 75 | 0 | 0.0 | 0.0 | 0.00 | 0.00 | 0.00 | 94 | 1016.0 |
| 20260901225025 | 75 | 0 | 0.0 | 0.0 | 0.00 | 0.00 | 0.00 | 93 | 1016.2 |
| 20260901224536 | 75 | 0 | 0.0 | 1.0 | 0.00 | 0.00 | 0.00 | 93 | 1016.3 |
| 20260901224020 | 75 | 0 | 0.0 | 1.0 | 0.00 | 0.00 | 0.00 | 92 | 1016.0 |
| 20260901223521 | 75 | 0 | 0.0 | 0.0 | 0.00 | 0.00 | 0.00 | 92 | 1016.1 |
| 20260901223039 | 76 | 0 | 0.0 | 0.0 | 0.00 | 0.00 | 0.00 | 90 | 1016.3 |
| 20260901222518 | 77 | 0 | 0.0 | 0.0 | 0.00 | 0.00 | 0.00 | 88 | 1016.2 |
| 20260901222020 | 77 | 0 | 0.0 | 1.0 | 0.00 | 0.00 | 0.00 | 87 | 1015.8 |
| 20260901221535 | 77 | 0 | 0.0 | 2.0 | 0.00 | 0.00 | 0.00 | 87 | 1015.6 |
| 20260901221018 | 78 | 0 | 0.0 | 3.0 | 0.00 | 0.00 | 0.00 | 85 | 1015.6 |
| 20260901220518 | 78 | 60 | 1.0 | 4.0 | 0.00 | 0.00 | 0.00 | 83 | 1015.4 |
| 20260901220104 | 79 | 60 | 1.0 | 5.0 | 0.00 | 0.00 | 0.00 | 82 | 1015.3 |
| 20260901215520 | 80 | 119 | 2.0 | 5.0 | 0.00 | 0.00 | 0.00 | 80 | 1015.2 |
| 20260901215021 | 81 | 24 | 2.0 | 8.0 | 0.00 | 0.00 | 0.00 | 80 | 1015.4 |
| 20260901214536 | 82 | 30 | 4.0 | 8.0 | 0.00 | 0.00 | 0.00 | 78 | 1015.4 |
| 20260901214020 | 82 | 27 | 1.0 | 6.0 | 0.00 | 0.00 | 0.00 | 78 | 1015.3 |
| 20260901213516 | 82 | 342 | 2.0 | 6.0 | 0.00 | 0.00 | 0.00 | 79 | 1015.4 |
| 20260901213035 | 82 | 26 | 3.0 | 6.0 | 0.00 | 0.00 | 0.00 | 78 | 1015.3 |
| 20260901212520 | 82 | 15 | 2.0 | 6.0 | 0.00 | 0.00 | 0.00 | 79 | 1015.3 |
| 20260901212019 | 81 | 25 | 1.0 | 6.0 | 0.00 | 0.00 | 0.00 | 80 | 1015.4 |
| 20260901211540 | 81 | 0 | 2.0 | 8.0 | 0.00 | 0.00 | 0.00 | 81 | 1015.4 |
| 20260901211020 | 81 | 323 | 3.0 | 8.0 | 0.00 | 0.00 | 0.00 | 80 | 1015.5 |
| 20260901210519 | 82 | 14 | 1.0 | 8.0 | 0.00 | 0.00 | 0.00 | 82 | 1015.4 |
| 20260901210056 | 81 | 319 | 4.0 | 8.0 | 0.00 | 0.00 | 0.00 | 81 | 1015.3 |
| 20260901205523 | 81 | 336 | 2.0 | 7.0 | 0.00 | 0.00 | 0.00 | 83 | 1015.3 |
| 20260901205018 | 81 | 348 | 2.0 | 9.0 | 0.00 | 0.00 | 0.00 | 82 | 1015.2 |
| 20260901204534 | 81 | 350 | 4.0 | 8.0 | 0.00 | 0.00 | 0.00 | 81 | 1015.0 |
| 20260901204018 | 81 | 347 | 2.0 | 7.0 | 0.00 | 0.00 | 0.00 | 82 | 1015.4 |
| 20260901203520 | 82 | 49 | 3.0 | 5.0 | 0.00 | 0.00 | 0.00 | 82 | 1015.4 |
| 20260901203038 | 81 | 355 | 3.0 | 5.0 | 0.00 | 0.00 | 0.00 | 84 | 1015.5 |
| 20260901202521 | 81 | 309 | 2.0 | 6.0 | 0.00 | 0.00 | 0.00 | 81 | 1015.5 |
| 20260901202020 | 81 | 27 | 3.0 | 6.0 | 0.00 | 0.00 | 0.00 | 83 | 1015.5 |
| 20260901201539 | 81 | 336 | 2.0 | 4.0 | 0.00 | 0.00 | 0.00 | 83 | 1015.6 |
| 20260901201020 | 81 | 346 | 2.0 | 6.0 | 0.00 | 0.00 | 0.00 | 84 | 1015.7 |
| 20260901200521 | 81 | 333 | 2.0 | 7.0 | 0.00 | 0.00 | 0.00 | 83 | 1015.7 |
| 20260901200036 | 81 | 327 | 3.0 | 7.0 | 0.00 | 0.00 | 0.00 | 82 | 1015.6 |
| 20260901195517 | 81 | 309 | 3.0 | 7.0 | 0.00 | 0.00 | 0.00 | 82 | 1015.7 |
| 20260901195021 | 82 | 290 | 3.0 | 7.0 | 0.00 | 0.00 | 0.00 | 82 | 1015.8 |
| 20260901194546 | 81 | 327 | 2.0 | 6.0 | 0.00 | 0.00 | 0.00 | 84 | 1015.8 |
| 20260901194018 | 80 | 246 | 2.0 | 8.0 | 0.00 | 0.00 | 0.00 | 84 | 1015.8 |
| 20260901193519 | 80 | 288 | 2.0 | 8.0 | 0.00 | 0.00 | 0.00 | 83 | 1015.9 |
| 20260901193038 | 80 | 275 | 3.0 | 8.0 | 0.00 | 0.00 | 0.00 | 83 | 1015.8 |
| 20260901192517 | 80 | 276 | 3.0 | 8.0 | 0.00 | 0.00 | 0.00 | 84 | 1015.8 |
| 20260901192017 | 80 | 194 | 4.0 | 8.0 | 0.00 | 0.00 | 0.00 | 86 | 1015.7 |
| 20260901191537 | 79 | 178 | 2.0 | 5.0 | 0.00 | 0.00 | 0.00 | 85 | 1015.8 |
| 20260901191021 | 79 | 292 | 1.0 | 7.0 | 0.00 | 0.00 | 0.00 | 86 | 1015.8 |
| 20260901190516 | 79 | 184 | 2.0 | 7.0 | 0.00 | 0.00 | 0.00 | 86 | 1015.9 |
| 20260901190034 | 79 | 251 | 3.0 | 7.0 | 0.00 | 0.00 | 0.00 | 85 | 1015.8 |
| 20260901185525 | 79 | 263 | 2.0 | 7.0 | 0.00 | 0.00 | 0.00 | 85 | 1016.0 |
| 20260901185021 | 79 | 229 | 2.0 | 7.0 | 0.00 | 0.00 | 0.00 | 85 | 1015.9 |
| 20260901184535 | 79 | 254 | 2.0 | 9.0 | 0.00 | 0.00 | 0.00 | 84 | 1015.8 |
| 20260901184021 | 79 | 281 | 4.0 | 9.0 | 0.00 | 0.00 | 0.00 | 85 | 1015.9 |
| 20260901183517 | 80 | 0 | 2.0 | 7.0 | 0.00 | 0.00 | 0.00 | 85 | 1015.9 |
| 20260901183035 | 79 | 225 | 3.0 | 8.0 | 0.00 | 0.00 | 0.00 | 88 | 1015.9 |
| 20260901182519 | 79 | 254 | 2.0 | 8.0 | 0.00 | 0.00 | 0.00 | 85 | 1015.8 |
| 20260901182020 | 78 | 327 | 2.0 | 6.0 | 0.00 | 0.00 | 0.00 | 87 | 1015.8 |
| 20260901181540 | 78 | 267 | 0.0 | 6.0 | 0.00 | 0.00 | 0.00 | 88 | 1015.8 |
| 20260901181016 | 77 | 196 | 3.0 | 6.0 | 0.00 | 0.00 | 0.00 | 88 | 1015.9 |
| 20260901180519 | 77 | 211 | 2.0 | 5.0 | 0.00 | 0.00 | 0.00 | 88 | 1015.9 |
| 20260901180035 | 78 | 0 | 1.0 | 4.0 | 0.00 | 0.00 | 0.00 | 89 | 1015.9 |
| 20260901175520 | 77 | 0 | 2.0 | 6.0 | 0.00 | 0.00 | 0.00 | 88 | 1015.8 |
| 20260901175018 | 77 | 221 | 1.0 | 6.0 | 0.00 | 0.00 | 0.00 | 89 | 1015.7 |
| 20260901174537 | 77 | 199 | 2.0 | 5.0 | 0.00 | 0.00 | 0.00 | 89 | 1015.7 |
| 20260901174020 | 77 | 209 | 1.0 | 7.0 | 0.00 | 0.00 | 0.00 | 90 | 1015.7 |
| 20260901173519 | 77 | 207 | 2.0 | 7.0 | 0.00 | 0.00 | 0.00 | 89 | 1015.8 |
| 20260901173038 | 77 | 175 | 2.0 | 7.0 | 0.00 | 0.00 | 0.00 | 90 | 1015.8 |
| 20260901172519 | 76 | 205 | 3.0 | 7.0 | 0.00 | 0.00 | 0.00 | 91 | 1015.8 |
| 20260901172019 | 76 | 199 | 2.0 | 7.0 | 0.00 | 0.00 | 0.00 | 91 | 1015.7 |
| 20260901171546 | 76 | 208 | 1.0 | 6.0 | 0.00 | 0.00 | 0.00 | 92 | 1015.7 |
| 20260901171018 | 75 | 196 | 2.0 | 6.0 | 0.00 | 0.00 | 0.00 | 91 | 1015.8 |
| 20260901170519 | 75 | 0 | 0.0 | 6.0 | 0.00 | 0.00 | 0.00 | 91 | 1016.0 |
| 20260901170100 | 75 | 193 | 2.0 | 6.0 | 0.00 | 0.00 | 0.00 | 92 | 1015.9 |
| 20260901165518 | 75 | 173 | 0.0 | 7.0 | 0.00 | 0.00 | 0.00 | 93 | 1015.9 |
| 20260901165018 | 75 | 213 | 3.0 | 7.0 | 0.00 | 0.00 | 0.00 | 93 | 1015.8 |
| 20260901164542 | 75 | 191 | 2.0 | 6.0 | 0.00 | 0.00 | 0.00 | 93 | 1015.9 |
| 20260901164020 | 75 | 205 | 2.0 | 5.0 | 0.00 | 0.00 | 0.00 | 93 | 1016.1 |
| 20260901163521 | 75 | 223 | 1.0 | 5.0 | 0.00 | 0.00 | 0.00 | 93 | 1016.1 |
| 20260901163042 | 75 | 172 | 1.0 | 4.0 | 0.00 | 0.00 | 0.00 | 93 | 1016.0 |
| 20260901162522 | 75 | 213 | 0.0 | 5.0 | 0.00 | 0.00 | 0.00 | 94 | 1016.0 |
| 20260901162018 | 74 | 0 | 3.0 | 5.0 | 0.00 | 0.00 | 0.00 | 95 | 1016.1 |
| 20260901161535 | 74 | 157 | 0.0 | 2.0 | 0.00 | 0.00 | 0.00 | 96 | 1016.3 |
| 20260901161020 | 73 | 0 | 0.0 | 2.0 | 0.00 | 0.00 | 0.00 | 96 | 1016.4 |
| 20260901160517 | 73 | 0 | 0.0 | 5.0 | 0.00 | 0.00 | 0.00 | 97 | 1016.3 |
| 20260901160039 | 73 | 0 | 0.0 | 5.0 | 0.00 | 0.00 | 0.00 | 97 | 1016.4 |
| 20260901155520 | 73 | 0 | 0.0 | 3.0 | 0.00 | 0.00 | 0.00 | 97 | 1016.4 |
| 20260901155018 | 72 | 0 | 0.0 | 3.0 | 0.00 | 0.00 | 0.00 | 98 | 1016.4 |
| 20260901154535 | 72 | 0 | 0.0 | 3.0 | 0.00 | 0.00 | 0.00 | 98 | 1016.5 |
| 20260901154019 | 71 | 0 | 0.0 | 3.0 | 0.00 | 0.00 | 0.00 | 99 | 1016.5 |
| 20260901153520 | 71 | 171 | 0.0 | 4.0 | 0.00 | 0.00 | 0.00 | 99 | 1016.6 |
| 20260901153032 | 71 | 0 | 0.0 | 4.0 | 0.00 | 0.00 | 0.00 | 99 | 1016.6 |
| 20260901152520 | 71 | 42 | 0.0 | 4.0 | 0.00 | 0.00 | 0.00 | 99 | 1016.5 |
| 20260901152023 | 71 | 0 | 0.0 | 4.0 | 0.00 | 0.00 | 0.00 | 99 | 1016.6 |
| 20260901151535 | 71 | 0 | 0.0 | 4.0 | 0.00 | 0.00 | 0.00 | 99 | 1016.6 |
| 20260901151020 | 71 | 36 | 1.0 | 4.0 | 0.00 | 0.00 | 0.00 | 99 | 1016.7 |
| 20260901150517 | 72 | 69 | 1.0 | 4.0 | 0.00 | 0.00 | 0.00 | 99 | 1016.7 |
| 20260901150054 | 71 | 158 | 0.0 | 1.0 | 0.00 | 0.00 | 0.00 | 99 | 1016.6 |
| 20260901145534 | 71 | 0 | 0.0 | 1.0 | 0.00 | 0.00 | 0.00 | 99 | 1016.6 |
| 20260901145018 | 71 | 0 | 0.0 | 3.0 | 0.00 | 0.00 | 0.00 | 100 | 1016.5 |
| 20260901144537 | 71 | 0 | 0.0 | 3.0 | 0.00 | 0.00 | 0.00 | 100 | 1016.4 |
| 20260901144019 | 70 | 0 | 0.0 | 3.0 | 0.00 | 0.00 | 0.00 | 100 | 1016.3 |
| 20260901143519 | 70 | 0 | 0.0 | 3.0 | 0.00 | 0.00 | 0.00 | 100 | 1016.3 |
| 20260901143036 | 70 | 0 | 0.0 | 2.0 | 0.00 | 0.00 | 0.00 | 99 | 1016.3 |
| 20260901142520 | 70 | 0 | 0.0 | 5.0 | 0.00 | 0.00 | 0.00 | 99 | 1016.3 |
| 20260901142020 | 70 | 157 | 1.0 | 5.0 | 0.00 | 0.00 | 0.00 | 99 | 1016.5 |
| 20260901141535 | 70 | 0 | 1.0 | 4.0 | 0.00 | 0.00 | 0.00 | 100 | 1016.3 |
| 20260901141020 | 70 | 0 | 1.0 | 4.0 | 0.00 | 0.00 | 0.00 | 100 | 1016.4 |
| 20260901140519 | 70 | 312 | 0.0 | 2.0 | 0.00 | 0.00 | 0.00 | 100 | 1016.4 |
| 20260901140039 | 69 | 312 | 0.0 | 2.0 | 0.00 | 0.00 | 0.00 | 99 | 1016.6 |
| 20260901135518 | 0 | 0.0 | 0.0 | 0.00 | 0.00 | 0.00 | 1016.8 | ||
| 20260901135016 | 0 | 0.0 | 0.0 | 0.00 | 0.00 | 0.00 | 1016.8 | ||
| 20260901134540 | 0 | 0.0 | 0.0 | 0.00 | 0.00 | 0.00 | 1016.8 | ||
| 20260901134020 | 0 | 0.0 | 0.0 | 0.00 | 0.00 | 0.00 | 1016.9 | ||
| 20260901133521 | 0 | 0.0 | 0.0 | 0.00 | 0.00 | 0.00 | 1017.0 | ||
| 20260901133037 | 0 | 0.0 | 0.0 | 0.00 | 0.00 | 0.00 | 1016.8 | ||
| 20260901132521 | 0 | 0.0 | 0.0 | 0.00 | 0.00 | 0.00 | 1016.7 | ||
| 20260901132021 | 0 | 0.0 | 0.0 | 0.00 | 0.00 | 0.00 | 1016.6 | ||
| 20260901131545 | 0 | 0.0 | 0.0 | 0.00 | 0.00 | 0.00 | 1017.0 | ||
| 20260901131019 | 0 | 0.0 | 0.0 | 0.00 | 0.00 | 0.00 | 1016.9 | ||
| 20260901130518 | 0 | 0.0 | 0.0 | 0.00 | 0.00 | 0.00 | 1017.0 | ||
| 20260901130037 | 0 | 0.0 | 0.0 | 0.00 | 0.00 | 0.00 | 1017.1 | ||
| 20260901125518 | 0 | 0.0 | 0.0 | 0.00 | 0.00 | 0.00 | 1017.0 | ||
| 20260901125018 | 0 | 0.0 | 0.0 | 0.00 | 0.00 | 0.00 | 1017.1 | ||
| 20260901124534 | 0 | 0.0 | 0.0 | 0.00 | 0.00 | 0.00 | 1017.0 | ||
| 20260901124016 | 0 | 0.0 | 0.0 | 0.00 | 0.00 | 0.00 | 1016.9 | ||
| 20260901123518 | 0 | 0.0 | 0.0 | 0.00 | 0.00 | 0.00 | 1016.7 | ||
| 20260901123038 | 0 | 0.0 | 0.0 | 0.00 | 0.00 | 0.00 | 1016.5 | ||
| 20260901122518 | 0 | 0.0 | 0.0 | 0.00 | 0.00 | 0.00 | 1016.4 | ||
| 20260901122021 | 0 | 0.0 | 0.0 | 0.00 | 0.00 | 0.00 | 1016.5 | ||
| 20260901121534 | 0 | 0.0 | 0.0 | 0.00 | 0.00 | 0.00 | 1016.6 | ||
| 20260901121019 | 0 | 0.0 | 0.0 | 0.00 | 0.00 | 0.00 | 1017.0 | ||
| 20260901120518 | 0 | 0.0 | 0.0 | 0.00 | 0.00 | 0.00 | 1017.1 | ||
| 20260901120036 | 0 | 0.0 | 0.0 | 0.00 | 0.00 | 0.00 | 1017.1 | ||
| 20260901115516 | 0 | 0.0 | 0.0 | 0.00 | 0.00 | 0.00 | 1016.8 | ||
| 20260901115018 | 0 | 0.0 | 0.0 | 0.00 | 0.00 | 0.00 | 1016.8 | ||
| 20260901114541 | 0 | 0.0 | 0.0 | 0.00 | 0.00 | 0.00 | 1016.7 | ||
| 20260901114016 | 0 | 0.0 | 0.0 | 0.00 | 0.00 | 0.00 | 1016.6 | ||
| 20260901113520 | 0 | 0.0 | 0.0 | 0.00 | 0.00 | 0.00 | 1016.6 | ||
| 20260901113033 | 0 | 0.0 | 0.0 | 0.00 | 0.00 | 0.00 | 1016.5 | ||
| 20260901112519 | 0 | 0.0 | 0.0 | 0.00 | 0.00 | 0.00 | 1016.6 | ||
| 20260901112021 | 0 | 0.0 | 0.0 | 0.00 | 0.00 | 0.00 | 1016.6 | ||
| 20260901111543 | 0 | 0.0 | 0.0 | 0.00 | 0.00 | 0.00 | 1016.8 | ||
| 20260901111019 | 0 | 0.0 | 0.0 | 0.00 | 0.00 | 0.00 | 1016.6 | ||
| 20260901110519 | 0 | 0.0 | 0.0 | 0.00 | 0.00 | 0.00 | 1016.6 | ||
| 20260901110037 | 0 | 0.0 | 0.0 | 0.00 | 0.00 | 0.00 | 1016.6 | ||
| 20260901105519 | 0 | 0.0 | 0.0 | 0.00 | 0.01 | 0.00 | 1016.7 | ||
| 20260901105018 | 0 | 0.0 | 0.0 | 0.00 | 0.01 | 0.00 | 1016.6 | ||
| 20260901104538 | 0 | 0.0 | 0.0 | 0.00 | 0.01 | 0.00 | 1016.5 | ||
| 20260901104018 | 0 | 0.0 | 0.0 | 0.00 | 0.01 | 0.00 | 1016.4 | ||
| 20260901103522 | 0 | 0.0 | 0.0 | 0.00 | 0.01 | 0.00 | 1016.5 | ||
| 20260901103034 | 0 | 0.0 | 0.0 | 0.00 | 0.01 | 0.00 | 1016.3 | ||
| 20260901102517 | 0 | 0.0 | 0.0 | 0.00 | 0.01 | 0.00 | 1016.3 | ||
| 20260901102017 | 0 | 0.0 | 0.0 | 0.00 | 0.01 | 0.00 | 1016.3 | ||
| 20260901101538 | 66 | 0.0 | 0.0 | 0.00 | 0.01 | 0.00 | 99 | 1016.2 | |
| 20260901101018 | 66 | 0.0 | 0.0 | 0.00 | 0.01 | 0.00 | 99 | 1016.3 | |
| 20260901100518 | 66 | 0 | 0.0 | 0.0 | 0.00 | 0.01 | 0.00 | 99 | 1016.4 |
| 20260901100039 | 66 | 0 | 0.0 | 0.0 | 0.00 | 0.01 | 0.00 | 99 | 1016.5 |
| 20260901095522 | 66 | 0 | 0.0 | 0.0 | 0.00 | 0.01 | 0.00 | 99 | 1016.5 |
| 20260901095020 | 66 | 0 | 0.0 | 0.0 | 0.00 | 0.01 | 0.00 | 99 | 1016.6 |
| 20260901094537 | 66 | 0 | 0.0 | 0.0 | 0.00 | 0.01 | 0.00 | 99 | 1016.7 |
| 20260901094019 | 66 | 0 | 0.0 | 0.0 | 0.00 | 0.01 | 0.00 | 99 | 1016.6 |
| 20260901093516 | 66 | 0 | 0.0 | 0.0 | 0.00 | 0.01 | 0.00 | 99 | 1016.7 |
| 20260901093036 | 66 | 0 | 0.0 | 0.0 | 0.00 | 0.01 | 0.00 | 99 | 1016.7 |
| 20260901092516 | 66 | 0 | 0.0 | 0.0 | 0.00 | 0.01 | 0.00 | 99 | 1016.7 |
| 20260901092016 | 66 | 0 | 0.0 | 0.0 | 0.00 | 0.01 | 0.00 | 99 | 1016.9 |
| 20260901091536 | 66 | 0 | 0.0 | 0.0 | 0.00 | 0.01 | 0.00 | 99 | 1017.0 |
| 20260901091020 | 66 | 0 | 0.0 | 0.0 | 0.00 | 0.01 | 0.00 | 99 | 1016.8 |
| 20260901090518 | 66 | 0 | 0.0 | 0.0 | 0.00 | 0.01 | 0.00 | 99 | 1016.8 |
| 20260901090036 | 66 | 0 | 0.0 | 0.0 | 0.00 | 0.01 | 0.00 | 99 | 1016.9 |
| 20260901085518 | 66 | 0 | 0.0 | 0.0 | 0.00 | 0.01 | 0.00 | 99 | 1017.0 |
| 20260901085020 | 66 | 0 | 0.0 | 0.0 | 0.00 | 0.01 | 0.00 | 99 | 1016.9 |
| 20260901084552 | 66 | 0 | 0.0 | 0.0 | 0.00 | 0.01 | 0.00 | 99 | 1016.9 |
| 20260901084019 | 66 | 0 | 0.0 | 0.0 | 0.00 | 0.01 | 0.00 | 99 | 1017.0 |
| 20260901083613 | 66 | 0 | 0.0 | 0.0 | 0.00 | 0.01 | 0.00 | 99 | 1017.1 |
| 20260901083036 | 66 | 0 | 0.0 | 0.0 | 0.00 | 0.01 | 0.00 | 99 | 1017.0 |
| 20260901082519 | 66 | 0 | 0.0 | 0.0 | 0.00 | 0.01 | 0.00 | 99 | 1016.9 |
| 20260901082017 | 66 | 0 | 0.0 | 0.0 | 0.00 | 0.01 | 0.00 | 99 | 1016.9 |
| 20260901081537 | 66 | 0 | 0.0 | 0.0 | 0.00 | 0.01 | 0.00 | 99 | 1017.0 |
| 20260901081021 | 66 | 0 | 0.0 | 0.0 | 0.00 | 0.01 | 0.00 | 99 | 1017.0 |
| 20260901080521 | 66 | 0 | 0.0 | 0.0 | 0.00 | 0.01 | 0.00 | 99 | 1017.2 |
| 20260901080040 | 66 | 0 | 0.0 | 0.0 | 0.00 | 0.01 | 0.00 | 99 | 1017.2 |
| 20260901075519 | 66 | 0 | 0.0 | 0.0 | 0.00 | 0.01 | 0.00 | 99 | 1017.3 |
| 20260901075018 | 66 | 0 | 0.0 | 0.0 | 0.00 | 0.01 | 0.00 | 99 | 1017.4 |
| 20260901074534 | 66 | 0 | 0.0 | 0.0 | 0.00 | 0.01 | 0.00 | 99 | 1017.6 |
| 20260901074020 | 65 | 0 | 0.0 | 0.0 | 0.00 | 0.01 | 0.00 | 99 | 1017.5 |
| 20260901073520 | 66 | 0 | 0.0 | 0.0 | 0.00 | 0.01 | 0.00 | 99 | 1017.5 |
| 20260901073037 | 65 | 0 | 0.0 | 0.0 | 0.00 | 0.01 | 0.00 | 99 | 1017.4 |
| 20260901072520 | 65 | 0 | 0.0 | 0.0 | 0.00 | 0.01 | 0.00 | 99 | 1017.5 |
| 20260901072018 | 65 | 0 | 0.0 | 0.0 | 0.00 | 0.01 | 0.00 | 99 | 1017.4 |
| 20260901071534 | 65 | 0 | 0.0 | 0.0 | 0.00 | 0.01 | 0.00 | 99 | 1017.4 |
| 20260901071018 | 65 | 0 | 0.0 | 0.0 | 0.00 | 0.01 | 0.00 | 99 | 1017.4 |
| 20260901070516 | 65 | 0 | 0.0 | 0.0 | 0.00 | 0.01 | 0.00 | 99 | 1017.4 |
| 20260901070037 | 65 | 0 | 0.0 | 0.0 | 0.00 | 0.01 | 0.00 | 99 | 1017.4 |
| 20260901065518 | 65 | 0 | 0.0 | 0.0 | 0.00 | 0.01 | 0.00 | 99 | 1017.4 |
| 20260901065022 | 65 | 0 | 0.0 | 0.0 | 0.00 | 0.01 | 0.00 | 99 | 1017.5 |
| 20260901064533 | 65 | 0 | 0.0 | 0.0 | 0.00 | 0.01 | 0.00 | 99 | 1017.6 |
| 20260901064018 | 65 | 0 | 0.0 | 0.0 | 0.00 | 0.01 | 0.00 | 99 | 1017.5 |
| 20260901063519 | 65 | 0 | 0.0 | 0.0 | 0.00 | 0.01 | 0.00 | 99 | 1017.6 |
| 20260901063039 | 65 | 0 | 0.0 | 0.0 | 0.00 | 0.01 | 0.00 | 99 | 1017.6 |
| 20260901062516 | 65 | 0 | 0.0 | 0.0 | 0.00 | 0.01 | 0.00 | 99 | 1017.7 |
| 20260901062018 | 65 | 0 | 0.0 | 0.0 | 0.00 | 0.01 | 0.00 | 99 | 1017.8 |
| 20260901061538 | 65 | 0 | 0.0 | 0.0 | 0.00 | 0.01 | 0.00 | 99 | 1017.7 |
| 20260901061016 | 65 | 0 | 0.0 | 0.0 | 0.00 | 0.01 | 0.00 | 99 | 1017.8 |
| 20260901060518 | 64 | 0 | 0.0 | 0.0 | 0.00 | 0.01 | 0.00 | 99 | 1017.7 |
| 20260901060037 | 64 | 0 | 0.0 | 0.0 | 0.00 | 0.01 | 0.00 | 99 | 1017.8 |
| 20260901055519 | 65 | 0 | 0.0 | 0.0 | 0.00 | 0.01 | 0.00 | 99 | 1017.9 |
| 20260901055019 | 65 | 0 | 0.0 | 0.0 | 0.00 | 0.01 | 0.00 | 99 | 1018.0 |
| 20260901054536 | 64 | 0 | 0.0 | 0.0 | 0.00 | 0.01 | 0.00 | 99 | 1018.0 |
| 20260901054017 | 64 | 0 | 0.0 | 0.0 | 0.00 | 0.01 | 0.00 | 99 | 1018.0 |
| 20260901053517 | 65 | 0 | 0.0 | 0.0 | 0.00 | 0.01 | 0.00 | 99 | 1018.1 |
| 20260901053050 | 65 | 0 | 0.0 | 0.0 | 0.00 | 0.01 | 0.00 | 99 | 1018.1 |
| 20260901052520 | 65 | 0 | 0.0 | 0.0 | 0.00 | 0.01 | 0.00 | 99 | 1018.1 |
| 20260901052018 | 65 | 0 | 0.0 | 0.0 | 0.00 | 0.01 | 0.00 | 99 | 1018.1 |
| 20260901051538 | 65 | 0 | 0.0 | 0.0 | 0.00 | 0.01 | 0.00 | 99 | 1018.1 |
| 20260901051020 | 65 | 0 | 0.0 | 0.0 | 0.00 | 0.01 | 0.00 | 99 | 1018.1 |
| 20260901050517 | 65 | 0 | 0.0 | 0.0 | 0.00 | 0.01 | 0.00 | 99 | 1018.2 |
| 20260901050038 | 65 | 0 | 0.0 | 0.0 | 0.00 | 0.01 | 0.00 | 99 | 1018.3 |
| 20260901045516 | 65 | 0 | 0.0 | 0.0 | 0.00 | 0.01 | 0.00 | 99 | 1018.3 |
| 20260901045019 | 65 | 0 | 0.0 | 0.0 | 0.00 | 0.01 | 0.00 | 99 | 1018.3 |
| 20260901044541 | 65 | 0 | 0.0 | 0.0 | 0.00 | 0.01 | 0.00 | 99 | 1018.3 |
| 20260901044019 | 65 | 0 | 0.0 | 0.0 | 0.00 | 0.01 | 0.00 | 99 | 1018.3 |
| 20260901043520 | 65 | 0 | 0.0 | 0.0 | 0.00 | 0.01 | 0.00 | 99 | 1018.2 |
| 20260901043041 | 65 | 0 | 0.0 | 0.0 | 0.00 | 0.01 | 0.00 | 99 | 1018.2 |
| 20260901042525 | 65 | 0 | 0.0 | 0.0 | 0.00 | 0.01 | 0.00 | 99 | 1018.3 |
| 20260901042020 | 65 | 0 | 0.0 | 0.0 | 0.00 | 0.01 | 0.00 | 99 | 1018.3 |
| 20260901041538 | 65 | 0 | 0.0 | 0.0 | 0.00 | 0.01 | 0.00 | 99 | 1018.3 |
| 20260901041018 | 65 | 0 | 0.0 | 0.0 | 0.00 | 0.01 | 0.00 | 99 | 1018.3 |
| 20260901040520 | 65 | 0 | 0.0 | 0.0 | 0.00 | 0.01 | 0.00 | 99 | 1018.2 |
| 20260901040038 | 65 | 0 | 0.0 | 0.0 | 0.00 | 0.01 | 0.00 | 99 | 1018.3 |
| 20260901035517 | 66 | 0 | 0.0 | 0.0 | 0.00 | 0.01 | 0.01 | 99 | 1018.4 |
| 20260901035020 | 66 | 0 | 0.0 | 0.0 | 0.00 | 0.01 | 0.01 | 99 | 1018.3 |
| 20260901034541 | 66 | 0 | 0.0 | 0.0 | 0.00 | 0.01 | 0.01 | 98 | 1018.3 |
| 20260901034016 | 66 | 0 | 0.0 | 0.0 | 0.00 | 0.01 | 0.01 | 99 | 1018.2 |
| 20260901033518 | 66 | 0 | 0.0 | 0.0 | 0.00 | 0.01 | 0.01 | 99 | 1018.3 |
| 20260901033057 | 66 | 0 | 0.0 | 0.0 | 0.00 | 0.01 | 0.01 | 99 | 1018.2 |
| 20260901032523 | 66 | 0 | 0.0 | 0.0 | 0.00 | 0.01 | 0.01 | 99 | 1018.3 |
| 20260901032021 | 66 | 0 | 0.0 | 0.0 | 0.00 | 0.01 | 0.01 | 99 | 1018.2 |
| 20260901031541 | 66 | 0 | 0.0 | 0.0 | 0.00 | 0.01 | 0.01 | 98 | 1018.4 |
| 20260901031017 | 66 | 0 | 0.0 | 0.0 | 0.00 | 0.01 | 0.01 | 99 | 1018.3 |
| 20260901030520 | 66 | 0 | 0.0 | 0.0 | 0.00 | 0.01 | 0.01 | 99 | 1018.3 |
| 20260901030036 | 66 | 0 | 0.0 | 0.0 | 0.00 | 0.01 | 0.01 | 99 | 1018.3 |
| 20260901025517 | 66 | 0 | 0.0 | 0.0 | 0.00 | 0.01 | 0.01 | 99 | 1018.3 |
| 20260901025017 | 67 | 0 | 0.0 | 0.0 | 0.00 | 0.01 | 0.01 | 99 | 1018.4 |
| 20260901024540 | 67 | 0 | 0.0 | 0.0 | 0.00 | 0.01 | 0.01 | 99 | 1018.4 |